Location: Sungai Buloh
(3.1000°N, 113.0000°E)
Time: 22:37:55
(UTC+00:00)

Cosmos 1741 Rocket - Pass Details

Date: 12 January 2026
Orbit: 758 x 777 km, 74.0° (Epoch: 10 February)

Event Time Altitude Azimuth Distance (km) Brightness Sun altitude
Rises 12:13:25 0° 350° (N) 3,201 7.1 -23.7°
Enters shadow 12:13:53 - 350° (N) 3,020 7.0 -23.8°
Exits shadow 12:20:47 77° 54° (NE) 777 3.8 -25.4°
Maximum altitude 12:20:56 79° 78° (ENE) 774 3.8 -25.4°
Drops below altitude 10° 12:26:07 10° 164° (SSE) 2,285 6.5 -26.6°
Sets 12:28:29 0° 165° (SSE) 3,213 7.3 -27.1°
